AMAZONAS 4A

Last updated on Wed Sep 17 2025 00:02:48 GMT+0000 (Coordinated Universal Time)

1 39616U 14011A 25259.56899862 -.00000272 00000+0 00000+0 0 9998 2 39616 0.0573 155.3829 0005058 35.4195 295.8007 1.00272834 41979
UTC large
Height (km)
Speed (km/s)
/
Latitude / Longitude
Inclination (degrees)
Orbital Period (minutes)
Azimuth
Elevation
Range (km)
Doppler Factor

Next 0 passes for location: London (51.5072 / 0.1276)

Sorry there are no passes over London.